Location: Camp at the Woods
(43.2055°N, 93.0905°W)
Time: 02:58:37
(UTC+00:00)

Nadezhda 4 Rocket - Pass Details

Date: 05 December 2023
Orbit: 949 x 991 km, 82.9° (Epoch: 01 March)

Event Time Altitude Azimuth Distance (km) Brightness Sun altitude
Rises 23:09:28 0° 169° (SSE) 3,629 7.2 -6.0°
Reaches altitude 10° 23:12:02 10° 164° (SSE) 2,682 6.4 -6.5°
Maximum altitude 23:17:53 49° 91° (E) 1,209 4.2 -7.4°
Drops below altitude 10° 23:23:45 10° 18° (NNE) 2,684 5.9 -8.4°
Sets 23:26:18 0° 13° (NNE) 3,632 6.6 -8.8°
